Change the Weather History Date:

Saturday, February 22, 2014

  Actual Average Record
Temperature  
Mean Temperature 33 °F -  
Max Temperature 37 °F 49 °F - ()
Min Temperature 29 °F 35 °F - ()
Degree Days  
Heating Degree Days 32    
Moisture  
Dew Point 33 °F    
Average Humidity 95    
Maximum Humidity 100    
Minimum Humidity 87    
Precipitation  
Precipitation 0.35 in 0.10 in - ()
Sea Level Pressure  
Sea Level Pressure 30.16 in    
Wind  
Wind Speed 4 mph ()    
Max Wind Speed 10 mph    
Max Gust Speed -    
Visibility 5.1 miles    
Events Rain , Snow    
T = Trace of Precipitation, MM = Missing Value Source: Averaged Metar Reports

Daily Weather History Graph

Daily Weather History Graph

Search for Another Location

Airport or City:

Trip Planner

Search our weather history database for the weather conditions in past years. The results will help you decide how hot, cold, wet, or windy it might be!

Date:

Astronomy

Feb. 22, 2014 Rise Set
Actual Time 7:08 AM PST 5:46 PM PST
Civil Twilight 6:36 AM PST 6:18 PM PST
Nautical Twilight 6:00 AM PST 6:54 PM PST
Astronomical Twilight 5:23 AM PST 7:31 PM PST
Moon 1:22 AM PST (2/22) 10:48 AM PST (2/22)
Length of Visible Light 11h 41m
Length of Day
10h 38m
Waning Gibbous, 49% of the Moon is Illuminated
Feb 22
Waning Gibbous
Mar 1
New
Mar 8
First Quarter
Mar 16
Full
Mar 23
Last Quarter

Hourly Weather History & Observations

Time (PST) Temp. Windchill Dew Point Humidity Pressure Visibility Wind Dir Wind Speed Gust Speed Precip Events Conditions
12:00 AM 33.8 °F 29.6 °F 30.2 °F 87% 30.26 in 30.0 mi West 4.6 mph - N/A   Mostly Cloudy
1:00 AM 30.2 °F 24.3 °F 28.4 °F 93% 30.25 in 30.0 mi WSW 5.8 mph - N/A   Mostly Cloudy
2:00 AM 30.2 °F 26.7 °F 28.4 °F 93% 30.25 in 30.0 mi WSW 3.5 mph - N/A   Scattered Clouds
3:00 AM 32.0 °F 27.5 °F 28.4 °F 87% 30.25 in 30.0 mi WSW 4.6 mph - N/A   Mostly Cloudy
4:00 AM 32 °F - 30 °F 91% 30.24 in 28 mi West 3.5 mph - -   Overcast
4:00 AM 32.0 °F 28.7 °F 30.2 °F 93% 30.24 in 30.0 mi West 3.5 mph - N/A   Overcast
5:00 AM 33.8 °F 29.6 °F 30.2 °F 87% 30.22 in 30.0 mi WSW 4.6 mph - N/A   Overcast
6:00 AM 33.8 °F 29.6 °F 30.2 °F 87% 30.22 in 15.0 mi WSW 4.6 mph - N/A   Overcast
6:25 AM 33.8 °F 30.8 °F 32.0 °F 93% 30.21 in 10.0 mi West 3.5 mph - N/A Snow Light Snow
7:00 AM 33.8 °F 30.8 °F 32.0 °F 93% 30.20 in 3.0 mi West 3.5 mph - N/A Snow Light Snow
7:23 AM 33.8 °F 29.6 °F 32.0 °F 93% 30.20 in 2.0 mi WSW 4.6 mph - N/A Snow Light Snow
7:38 AM 32.0 °F 28.7 °F 32.0 °F 100% 30.20 in 1.0 mi West 3.5 mph - N/A Snow Light Snow
8:00 AM 32.0 °F 27.5 °F 32.0 °F 100% 30.20 in 2.0 mi WSW 4.6 mph - N/A Snow Light Snow
8:15 AM 32.0 °F 27.5 °F 32.0 °F 100% 30.20 in 1.5 mi West 4.6 mph - N/A Snow Light Snow
8:40 AM 33.8 °F - 32.0 °F 93% 30.20 in 1.0 mi WNW 2.3 mph - N/A Snow Light Snow
9:00 AM 32.0 °F - 32.0 °F 100% 30.20 in 0.8 mi West 2.3 mph - N/A Snow Light Snow
10:00 AM 33 °F - 33 °F 97% 30.20 in 1 mi North 1.2 mph - - Snow Light Snow
10:00 AM 32.0 °F - 32.0 °F 100% 30.20 in 0.8 mi Calm Calm - N/A Snow Light Snow
10:21 AM 32.0 °F - 32.0 °F 100% 30.20 in 0.5 mi Calm Calm - N/A Snow Snow
11:00 AM 33.8 °F - 33.8 °F 100% 30.19 in 1.0 mi SW 2.3 mph - N/A Snow Light Snow
11:25 AM 33.8 °F - 33.8 °F 100% 30.19 in 2.0 mi Variable 2.3 mph - N/A Snow Light Snow
11:36 AM 33.8 °F - 33.8 °F 100% 30.19 in 5.0 mi Calm Calm - N/A Snow Light Snow
12:00 PM 35.6 °F - 35.6 °F 100% 30.18 in 7.0 mi South 2.3 mph - N/A Snow Light Snow
12:14 PM 35.6 °F 29.9 °F 33.8 °F 93% 30.17 in 10.0 mi SSE 6.9 mph - N/A Rain Light Rain
1:00 PM 35.6 °F 28.6 °F 33.8 °F 93% 30.16 in 12.0 mi SSE 9.2 mph - N/A Rain Light Rain
2:00 PM 35.6 °F 29.2 °F 35.6 °F 100% 30.13 in 15.0 mi SE 8.1 mph - N/A Rain Light Rain
3:00 PM 37.4 °F 30.3 °F 35.6 °F 93% 30.10 in 12.0 mi ESE 10.4 mph - N/A Rain Light Rain
4:00 PM 37 °F - 35 °F 90% 30.10 in 12 mi SE 10.4 mph - - Rain Light Rain
4:00 PM 37.4 °F 30.8 °F 35.6 °F 93% 30.09 in 12.0 mi SE 9.2 mph - N/A Rain Light Rain
4:22 PM 35.6 °F 28.0 °F 35.6 °F 100% 30.09 in 10.0 mi SSE 10.4 mph - N/A Rain Light Rain
5:00 PM 35.6 °F 29.2 °F 33.8 °F 93% 30.09 in 8.0 mi SSE 8.1 mph - N/A Rain Light Rain
6:00 PM 35.6 °F 31.7 °F 33.8 °F 93% 30.07 in 8.0 mi SE 4.6 mph - N/A Rain Light Rain
6:15 PM 35.6 °F 31.7 °F 33.8 °F 93% 30.07 in 6.0 mi SE 4.6 mph - N/A Rain Light Rain
6:48 PM 35.6 °F 29.9 °F 35.6 °F 100% 30.07 in 4.0 mi East 6.9 mph - N/A Rain Light Rain
7:00 PM 35.6 °F 28.6 °F 35.6 °F 100% 30.07 in 4.0 mi East 9.2 mph - N/A Rain Light Rain
8:00 PM 35.6 °F 29.9 °F 33.8 °F 93% 30.06 in 4.0 mi East 6.9 mph - N/A Rain Light Rain
9:00 PM 33.8 °F 30.8 °F 33.8 °F 100% 30.07 in 3.0 mi ENE 3.5 mph - N/A Rain , Snow Light Snow
9:10 PM 33.8 °F 29.6 °F 33.8 °F 100% 30.07 in 1.0 mi East 4.6 mph - N/A Snow Light Snow
9:50 PM 33.8 °F 29.6 °F 32.0 °F 93% 30.07 in 1.0 mi ENE 4.6 mph - N/A Snow Light Snow
10:00 PM 33 °F - 33 °F 98% 30.07 in 1 mi NE 4.6 mph - - Snow Light Snow
10:00 PM 33.8 °F 29.6 °F 32.0 °F 93% 30.07 in 1.0 mi NE 4.6 mph - N/A Snow Light Snow
11:00 PM 32.0 °F 26.4 °F 32.0 °F 100% 30.07 in 1.0 mi North 5.8 mph - N/A Snow Light Snow